Location: Melizzano
(41.1500°N, 14.5000°E)
Time: 20:40:50
(UTC+00:00)

Lacrosse 5 - Pass Details

Date: 11 May 2021
Orbit: 715 x 724 km, 57.0° (Epoch: 15 June)

Event Time Altitude Azimuth Distance (km) Brightness Sun altitude
Exits shadow 23:54:45 52° 54° (NE) 893 2.5 -29.3°
Drops below altitude 10° 23:58:35 10° 46° (NE) 2,204 5.1 -29.1°
Sets 00:00:58 0° 46° (NE) 3,129 6.1 -29.0°
